Louisville, KY

7:05 AM EST on January 19, 2018 (GMT -0500)
Louisville International-Standiford

Weather History for KSDF - October, 2012

Change the Weather History Date:

Wednesday, October 3, 2012

  Actual Average Record
Temperature  
Mean Temperature 66 °F 64 °F  
Max Temperature 76 °F 75 °F 91 °F (1959)
Min Temperature 55 °F 53 °F 32 °F (1974)
Degree Days  
Heating Degree Days 0 4  
Month to date heating degree days 4 11  
Since 1 July heating degree days 36 41  
Cooling Degree Days 1 3  
Month to date cooling degree days 1 9  
Year to date cooling degree days 1922 1576  
Growing Degree Days 15 (Base 50)    
Moisture  
Dew Point 52 °F    
Average Humidity 64    
Maximum Humidity 86    
Minimum Humidity 41    
Precipitation  
Precipitation 0.00 in 0.10 in 2.62 in (1893)
Month to date precipitation 1.12 0.31  
Year to date precipitation 36.52 34.58  
Snow  
Snow 0.00 in 0.00 in T in (1980)
Month to date snowfall 0.0 0.0  
Since 1 July snowfall 0.0 0.0  
Since 1 September snowfall 0.0 0.0  
Snow Depth 0.00 in    
Sea Level Pressure  
Sea Level Pressure 30.04 in    
Wind  
Wind Speed 7 mph (South)    
Max Wind Speed 18 mph    
Max Gust Speed 24 mph    
Visibility 10 miles    
Events      
T = Trace of Precipitation, MM = Missing Value Source: NWS Daily Summary

Daily Weather History Graph

Daily Weather History Graph

Search for Another Location

Airport or City:

Trip Planner

Search our weather history database for the weather conditions in past years. The results will help you decide how hot, cold, wet, or windy it might be!

Date:

Astronomy

Oct. 03, 2012 Rise Set
Actual Time 7:40 AM EDT 7:22 PM EDT
Civil Twilight 7:14 AM EDT 7:48 PM EDT
Nautical Twilight 6:44 AM EDT 8:18 PM EDT
Astronomical Twilight 6:13 AM EDT 8:49 PM EDT
Moon 9:17 PM EDT (10/3) 10:59 AM EDT (10/3)
Length of Visible Light 12h 33m
Length of Day
11h 41m
Waning Gibbous, 89% of the Moon is Illuminated
Oct 3
Waning Gibbous
Oct 8
Last Quarter
Oct 15
New
Oct 21
First Quarter
Oct 29
Full

Hourly Weather History & Observations

Time (EDT) Temp. Dew Point Humidity Pressure Visibility Wind Dir Wind Speed Gust Speed Precip Events Conditions
12:56 AM 60.1 °F 54.0 °F 80% 29.91 in 10.0 mi South 6.9 mph - N/A   Overcast
1:56 AM 60.1 °F 54.0 °F 80% 29.93 in 10.0 mi South 8.1 mph - N/A   Overcast
2:56 AM 59.0 °F 51.1 °F 75% 29.96 in 10.0 mi SSW 10.4 mph 24.2 mph N/A   Overcast
3:56 AM 59.0 °F 51.1 °F 75% 29.96 in 10.0 mi South 9.2 mph - N/A   Overcast
4:19 AM 59.0 °F 51.8 °F 77% 29.97 in 10.0 mi South 10.4 mph - N/A   Overcast
4:56 AM 57.9 °F 52.0 °F 81% 29.98 in 10.0 mi SSW 6.9 mph - N/A   Overcast
5:56 AM 57.9 °F 52.0 °F 81% 30.00 in 10.0 mi South 6.9 mph - N/A   Overcast
6:56 AM 55.4 °F 51.8 °F 88% 30.03 in 9.0 mi SE 5.8 mph - N/A   Mostly Cloudy
7:56 AM 55.9 °F 52.0 °F 87% 30.04 in 7.0 mi ESE 3.5 mph - N/A   Overcast
8:56 AM 57.0 °F 53.1 °F 87% 30.06 in 6.0 mi SSE 3.5 mph - N/A   Overcast
9:56 AM 62.1 °F 53.1 °F 72% 30.08 in 9.0 mi South 5.8 mph - N/A   Scattered Clouds
10:56 AM 66.0 °F 53.1 °F 63% 30.08 in 10.0 mi SSW 8.1 mph - N/A   Scattered Clouds
11:56 AM 69.1 °F 53.1 °F 57% 30.08 in 10.0 mi SSW 8.1 mph - N/A   Scattered Clouds
12:56 PM 72.0 °F 51.1 °F 48% 30.08 in 10.0 mi SW 10.4 mph 17.3 mph N/A   Scattered Clouds
1:56 PM 73.9 °F 50.0 °F 43% 30.06 in 10.0 mi SW 11.5 mph 17.3 mph N/A   Scattered Clouds
2:56 PM 73.9 °F 48.9 °F 41% 30.04 in 10.0 mi SW 5.8 mph - N/A   Scattered Clouds
3:56 PM 73.0 °F 48.9 °F 42% 30.04 in 10.0 mi South 9.2 mph - N/A   Scattered Clouds
4:56 PM 73.9 °F 48.9 °F 41% 30.05 in 10.0 mi South 11.5 mph - N/A   Mostly Cloudy
5:56 PM 73.0 °F 48.0 °F 41% 30.06 in 10.0 mi SSW 9.2 mph - N/A   Mostly Cloudy
6:56 PM 71.1 °F 48.9 °F 45% 30.06 in 10.0 mi SSW 8.1 mph - N/A   Scattered Clouds
7:56 PM 68.0 °F 51.1 °F 55% 30.08 in 10.0 mi South 3.5 mph - N/A   Scattered Clouds
8:56 PM 64.9 °F 52.0 °F 63% 30.10 in 10.0 mi SSE 4.6 mph - N/A   Scattered Clouds
9:56 PM 64.0 °F 53.1 °F 67% 30.11 in 10.0 mi Calm Calm - N/A   Partly Cloudy
10:56 PM 62.1 °F 53.1 °F 72% 30.12 in 10.0 mi Calm Calm - N/A   Clear
11:56 PM 60.1 °F 53.1 °F 78% 30.14 in 10.0 mi SE 4.6 mph - N/A   Clear